TimeEDT,TemperatureF,Dew PointF,Humidity,Sea Level PressureIn,VisibilityMPH,Wind Direction,Wind SpeedMPH,Gust SpeedMPH,PrecipitationIn,Events,Conditions,WindDirDegrees,DateUTC
12:53 AM,33.1,25.0,72,29.60,10.0,Calm,Calm,-,N/A,,Overcast,0,2013-03-26 04:53:00
1:53 AM,34.0,26.1,73,29.60,10.0,Calm,Calm,-,N/A,,Overcast,0,2013-03-26 05:53:00
2:53 AM,33.1,26.1,75,29.60,10.0,Calm,Calm,-,N/A,,Overcast,0,2013-03-26 06:53:00
3:12 AM,33.8,24.8,70,29.59,10.0,Calm,Calm,-,N/A,,Overcast,0,2013-03-26 07:12:00
3:53 AM,32.0,27.0,82,29.60,7.0,Calm,Calm,-,0.00,Snow,Light Snow,0,2013-03-26 07:53:00
4:53 AM,32.0,28.0,85,29.61,7.0,Calm,Calm,-,0.00,Snow,Light Snow,0,2013-03-26 08:53:00
5:53 AM,32.0,28.0,85,29.63,10.0,Calm,Calm,-,0.00,,Overcast,0,2013-03-26 09:53:00
6:53 AM,34.0,27.0,75,29.65,10.0,North,6.9,-,N/A,,Overcast,350,2013-03-26 10:53:00
7:53 AM,35.1,28.0,76,29.67,10.0,NNW,8.1,-,N/A,,Scattered Clouds,330,2013-03-26 11:53:00
8:53 AM,36.0,27.0,70,29.69,10.0,NNW,8.1,-,N/A,,Mostly Cloudy,340,2013-03-26 12:53:00
9:09 AM,37.4,26.6,65,29.67,10.0,NNW,6.9,-,N/A,,Scattered Clouds,330,2013-03-26 13:09:00
9:53 AM,39.9,26.1,58,29.69,10.0,NW,9.2,-,N/A,,Mostly Cloudy,310,2013-03-26 13:53:00
10:53 AM,45.0,19.9,37,29.70,10.0,North,13.8,19.6,N/A,,Mostly Cloudy,10,2013-03-26 14:53:00
11:53 AM,46.0,19.0,34,29.70,10.0,North,10.4,19.6,N/A,,Clear,10,2013-03-26 15:53:00
12:53 PM,44.1,18.0,35,29.71,10.0,NW,9.2,17.3,N/A,,Overcast,320,2013-03-26 16:53:00
1:53 PM,46.9,19.0,33,29.71,10.0,NNE,15.0,20.7,N/A,,Mostly Cloudy,20,2013-03-26 17:53:00
2:53 PM,46.0,18.0,33,29.70,10.0,WNW,13.8,18.4,N/A,,Scattered Clouds,300,2013-03-26 18:53:00
3:53 PM,48.0,18.0,30,29.70,10.0,NNW,11.5,17.3,N/A,,Mostly Cloudy,340,2013-03-26 19:53:00
4:53 PM,46.9,18.0,32,29.71,10.0,NW,11.5,18.4,N/A,,Partly Cloudy,310,2013-03-26 20:53:00
5:53 PM,46.0,18.0,33,29.73,10.0,NNW,10.4,-,N/A,,Clear,330,2013-03-26 21:53:00
6:53 PM,43.0,18.0,37,29.75,10.0,NW,10.4,-,N/A,,Clear,310,2013-03-26 22:53:00
7:53 PM,39.9,19.0,43,29.77,10.0,NNW,4.6,-,N/A,,Clear,330,2013-03-26 23:53:00
8:53 PM,34.0,21.0,59,29.79,10.0,Calm,Calm,-,N/A,,Clear,0,2013-03-27 00:53:00
9:53 PM,36.0,19.9,52,29.80,10.0,NNW,5.8,-,N/A,,Clear,340,2013-03-27 01:53:00
10:53 PM,27.0,21.0,78,29.81,10.0,Calm,Calm,-,N/A,,Clear,0,2013-03-27 02:53:00
11:53 PM,28.0,21.0,75,29.81,10.0,Calm,Calm,-,N/A,,Scattered Clouds,0,2013-03-27 03:53:00